Location: Cassano d�Adda
(45.5333°N, 9.5167°E)
Time: 20:28:31
(UTC+00:00)

SL-16 R/B - Pass Details

Date: 08 December 2019
Orbit: 840 x 849 km, 71.0° (Epoch: 18 January)

Event Time Altitude Azimuth Distance (km) Brightness Sun altitude
Rises 19:32:46 0° 242° (WSW) 3,400 6.0 -40.1°
Reaches altitude 10° 19:35:37 10° 255° (WSW) 2,470 5.2 -40.6°
Enters shadow 19:38:28 22° 282° (WNW) 1,773 4.3 -41.1°
